Wind_Speed
1 1 0 1 1 1 1 1 2 2 4 6 6 6 6 6 6 6 5 4 4 3 3 2 2 1 1 2 2 2 1 1 1 2 2 3 2 2 2 2 1 1 1
1 0 1 0 0 1 1 2 3 3 4 5 6 6 6 6 6 5 5 4 3 3 2 1 1 0 0 1 2 1 1 0 1 1 2 2 2 2 2 2 1 1 1
1 1 1 1 0 0 1 2 4 4 4 5 6 6 6 6 5 5 4 4 3 2 2 1 1 2 1 0 0 1 1 1 1 1 2 2 2 1 1 1 1 1 1
1 1 2 1 0 1 0 2 3 4 4 4 4 5 5 5 5 5 4 4 3 2 1 0 1 2 2 2 1 1 1 1 0 1 1 2 2 2 1 1 1 1 2
2 2 2 2 1 1 1 1 2 4 5 5 4 4 3 3 3 3 3 3 2 2 1 1 2 2 2 2 2 1 1 1 0 1 1 2 2 2 1 2 2 2 2
2 2 2 2 1 1 1 0 2 4 5 4 3 3 2 1 1 1 1 1 1 1 1 2 2 3 2 2 2 1 1 1 1 1 1 2 3 2 2 2 2 2 3
3 3 3 3 2 1 1 1 2 3 4 4 3 3 2 1 0 1 1 0 1 1 1 1 2 2 2 2 2 1 1 2 1 1 1 2 3 3 3 2 3 3 3
5 4 4 5 4 2 2 2 2 3 3 3 2 2 1 1 0 1 1 1 1 0 1 1 1 1 2 3 2 1 2 3 2 1 1 2 3 3 3 2 3 4 4
7 6 5 5 4 4 3 2 1 2 2 2 2 1 0 1 1 1 0 0 0 1 1 1 1 2 2 3 2 2 2 2 2 1 2 2 3 3 3 3 3 4 4
8 7 6 5 5 5 4 3 3 2 1 1 1 1 1 1 0 0 1 1 1 2 2 2 2 3 3 3 2 3 2 2 1 2 2 3 3 3 3 4 4 4 5
8 8 7 6 6 5 4 4 3 3 2 1 1 1 2 1 0 1 1 1 1 2 2 2 3 3 3 3 3 3 3 4 3 3 3 3 4 4 4 4 5 5 5
9 9 8 7 6 5 4 3 3 3 3 2 2 2 2 2 2 2 2 3 3 3 3 3 4 4 4 3 4 4 4 4 3 4 4 4 4 5 5 6 6 6 6
9 9 9 8 7 5 4 4 4 4 3 3 2 2 2 3 2 2 3 3 3 3 4 3 4 4 4 4 3 3 4 4 4 4 4 4 5 6 6 7 7 7 7
10 9 10 10 9 7 5 4 4 4 4 3 3 3 3 3 2 3 3 3 3 3 4 4 4 4 4 3 3 3 3 4 4 4 5 5 5 6 6 6 7 7 7
10 10 11 11 10 9 7 6 5 5 5 4 4 4 4 3 3 4 4 3 4 4 4 5 5 4 5 5 4 3 4 5 5 4 5 6 6 6 6 6 7 7 8
10 10 11 11 10 9 8 7 7 6 6 6 5 5 5 4 4 4 4 4 5 5 4 5 5 5 5 5 4 3 4 5 5 5 6 6 6 6 6 7 7 8 8
10 10 10 10 10 9 9 8 8 7 7 7 7 7 6 6 5 5 5 5 6 6 5 5 5 5 5 4 4 5 5 5 5 6 6 6 7 7 8 8 8 8 8
10 9 9 8 8 8 8 8 8 8 8 7 7 7 7 7 6 6 6 6 6 6 6 6 5 5 5 5 5 6 6 6 6 6 6 6 7 8 8 9 9 9 9
8 8 8 7 8 8 7 7 8 8 8 8 8 8 7 7 7 7 7 7 7 7 6 6 5 6 6 5 6 7 7 8 8 8 8 8 7 8 9 9 10 10 9
8 7 7 7 7 7 7 7 7 7 7 8 8 8 7 7 8 8 8 7 7 7 7 7 6 6 6 7 7 8 8 9 8 9 9 9 9 9 10 10 10 10 10
7 6 7 6 6 6 6 6 7 7 8 8 8 8 8 8 9 9 9 8 7 7 7 7 6 6 7 8 8 9 9 10 10 10 10 11 11 11 10 11 10 10 10
7 7 6 6 6 6 6 7 8 8 9 9 9 9 9 9 10 9 8 8 8 8 8 8 7 7 8 9 10 10 10 10 10 11 11 12 12 11 11 11 11 11 11
7 7 7 7 7 7 8 8 8 9 9 9 10 10 10 11 11 10 10 9 8 8 9 9 8 8 9 10 11 11 11 11 11 11 11 11 12 12 12 12 12 12 12
7 8 8 7 7 7 8 8 8 9 9 10 11 11 12 12 11 10 10 9 9 9 9 10 9 10 10 11 11 12 12 12 12 12 13 13 13 12 13 12 13 13 13
7 8 8 8 8 8 8 9 9 9 10 10 11 12 13 13 12 11 11 11 11 10 10 11 11 11 12 12 12 12 12 13 13 13 13 13 13 14 14 14 14 13 13
8 8 8 8 9 9 9 9 9 10 11 11 12 12 13 13 13 12 12 13 13 12 12 12 12 12 12 12 12 13 13 14 14 14 13 13 14 15 15 15 15 15 15
Wind_Direction
67 41 36 304 278 212 202 193 159 161 159 156 164 166 167 164 165 168 169 159 154 157 159 157 133 98 79 74 68 68 68 66 78 87 90 67 56 52 52 53 57 67 13
346 335 355 206 225 205 208 185 160 147 141 145 156 163 165 168 171 171 176 180 177 182 181 187 188 238 127 83 71 61 31 22 73 80 59 44 45 50 51 46 37 7 354
1 9 10 21 165 88 169 168 158 151 144 147 149 157 164 169 172 177 178 190 197 199 204 251 246 226 239 286 1 34 334 346 37 63 34 36 39 44 27 28 45 18 351
18 26 25 32 16 350 13 173 154 154 151 154 152 159 164 170 180 189 198 211 219 228 242 291 277 272 282 284 292 325 327 358 29 111 39 23 2 345 358 5 358 330 325
40 22 27 15 8 2 340 201 161 154 155 155 148 148 158 168 180 193 195 213 232 231 238 321 330 294 288 281 279 263 294 331 338 88 12 2 1 353 357 14 359 339 331
41 24 12 3 343 343 304 182 152 145 149 150 144 140 140 166 198 176 189 200 195 229 264 313 305 319 303 285 246 235 288 309 324 312 353 12 12 18 33 35 25 13 6
36 24 12 16 7 341 19 118 150 146 154 153 144 134 124 107 141 189 180 139 193 269 330 315 310 311 285 272 257 266 283 314 300 319 359 2 4 14 12 16 9 0 5
34 34 22 9 5 24 42 77 135 134 147 150 130 126 133 174 221 192 191 172 165 245 330 240 245 322 315 284 273 276 297 308 311 322 357 0 356 359 352 353 360 349 346
34 37 32 33 41 54 60 68 116 145 151 147 123 122 130 269 266 226 271 182 174 27 27 19 311 310 314 298 301 304 302 314 323 330 354 351 345 349 346 340 338 339 340
33 36 39 51 53 55 67 69 85 112 141 136 94 45 359 350 156 223 308 260 328 353 355 336 315 304 306 291 302 309 303 315 323 328 330 328 334 337 328 324 319 325 331
33 35 37 40 44 56 63 61 68 79 75 68 49 13 350 355 339 329 53 8 338 331 333 326 315 307 304 287 285 291 289 297 295 302 308 311 317 325 322 310 308 314 318
33 33 34 37 39 47 60 57 55 56 57 49 47 18 8 353 347 330 327 332 331 327 323 312 302 309 318 296 284 287 284 288 297 297 299 303 310 313 315 304 298 304 311
35 33 35 40 46 54 57 57 52 45 41 32 27 14 15 21 18 8 9 353 341 341 337 339 342 338 336 320 307 302 284 286 298 297 300 306 307 312 314 309 303 304 301
35 36 40 44 51 54 56 58 41 35 39 38 36 34 23 31 10 353 3 1 354 354 354 352 346 345 351 336 313 312 300 294 301 308 304 301 302 307 311 309 303 298 296
39 39 42 46 51 54 56 52 42 35 29 30 34 24 18 12 3 2 11 8 357 344 345 346 348 350 350 351 345 336 327 310 305 312 316 310 310 314 317 321 315 306 298
36 39 44 47 50 54 53 45 38 35 32 32 31 25 17 12 11 8 5 358 353 350 342 340 343 350 352 356 357 349 338 327 313 314 318 316 314 312 311 316 317 312 305
38 38 42 46 48 49 47 44 40 39 36 34 31 28 20 16 9 0 352 351 348 346 337 333 335 341 348 350 348 341 330 329 329 323 321 318 316 315 311 316 319 317 311
34 35 37 41 40 39 37 36 34 33 34 28 28 20 13 11 7 359 354 351 346 342 337 332 328 327 332 338 338 335 333 331 329 324 322 324 321 317 313 314 317 319 312
26 28 29 32 32 32 33 31 26 24 21 20 16 13 11 8 6 4 0 353 348 345 339 331 326 326 329 331 330 330 329 329 329 324 324 323 320 318 315 312 314 314 310
16 20 18 20 22 21 20 20 19 14 11 11 8 6 6 5 359 356 353 348 346 345 338 331 326 326 328 328 327 326 326 327 326 325 324 321 319 317 316 314 316 314 311
6 10 13 14 10 8 7 8 7 4 4 4 2 357 355 355 353 353 350 347 344 346 342 334 328 321 321 320 317 317 319 321 320 320 318 313 312 314 315 317 315 314 314
356 1 3 4 3 1 1 0 360 360 359 357 355 351 349 348 346 345 343 340 342 343 338 333 327 323 320 318 317 317 315 316 316 314 313 313 312 312 314 313 313 312 310
348 351 351 349 352 353 352 354 355 353 350 349 347 345 343 342 342 340 338 340 341 338 332 327 321 319 322 322 320 319 317 315 315 313 316 316 315 315 317 316 314 314 312
342 343 346 345 344 343 343 345 346 344 341 341 340 338 337 340 340 340 339 337 332 329 326 321 319 321 323 322 321 320 318 319 316 315 316 316 317 317 316 315 311 311 313
332 336 339 341 341 338 336 335 335 336 337 337 337 337 339 337 337 334 334 330 326 324 321 320 319 320 319 318 318 319 320 320 319 318 317 316 316 316 315 315 314 312 311
325 326 327 329 333 336 335 335 333 331 331 332 332 332 333 335 333 330 328 325 324 321 317 315 317 318 318 318 318 317 318 321 318 317 317 318 316 315 314 312 312 311 309
Height
5881 5880 5880 5880 5880 5879 5878 5877 5876 5874 5873 5873 5875 5877 5879 5881 5883 5884 5885 5886 5887 5887 5888 5889 5889 5889 5889 5890 5890 5891 5891 5891 5891 5891 5891 5892 5892 5893 5893 5893 5893 5893 5893
5881 5881 5881 5881 5880 5880 5879 5878 5877 5876 5876 5876 5878 5879 5881 5882 5884 5885 5886 5886 5887 5888 5888 5889 5889 5890 5890 5890 5891 5891 5891 5891 5891 5891 5892 5892 5892 5892 5893 5893 5893 5893 5893
5882 5881 5881 5881 5881 5881 5880 5879 5879 5879 5879 5879 5880 5881 5882 5883 5884 5885 5886 5887 5887 5888 5888 5889 5890 5890 5890 5891 5891 5891 5891 5891 5891 5892 5892 5892 5892 5892 5893 5893 5893 5893 5893
5882 5882 5882 5882 5882 5881 5881 5880 5880 5881 5881 5881 5882 5883 5884 5884 5885 5886 5887 5887 5888 5888 5889 5890 5890 5890 5890 5891 5891 5891 5891 5891 5891 5892 5892 5892 5892 5892 5893 5893 5893 5893 5893
5883 5883 5883 5882 5882 5882 5882 5881 5881 5882 5882 5883 5884 5884 5885 5885 5886 5886 5887 5887 5888 5889 5890 5890 5890 5891 5891 5891 5891 5891 5892 5892 5892 5892 5893 5892 5892 5892 5892 5893 5892 5892 5892
5884 5883 5883 5883 5883 5882 5882 5882 5883 5883 5883 5884 5885 5885 5886 5886 5886 5886 5887 5887 5888 5889 5889 5890 5890 5890 5891 5891 5891 5891 5892 5892 5892 5893 5892 5892 5892 5892 5892 5892 5892 5892 5892
5885 5884 5883 5884 5883 5883 5883 5883 5884 5884 5885 5885 5886 5886 5887 5887 5887 5887 5887 5888 5889 5889 5890 5890 5890 5890 5890 5890 5891 5891 5892 5892 5892 5893 5892 5892 5892 5892 5892 5892 5892 5892 5892
5886 5885 5884 5884 5883 5883 5884 5884 5885 5885 5886 5886 5887 5887 5887 5888 5888 5888 5888 5888 5889 5890 5890 5890 5890 5890 5891 5891 5891 5891 5892 5892 5892 5892 5892 5892 5892 5892 5892 5892 5892 5892 5892
5887 5886 5885 5884 5884 5884 5885 5885 5885 5886 5887 5887 5888 5888 5888 5888 5888 5889 5889 5889 5889 5890 5890 5890 5890 5890 5891 5891 5891 5891 5892 5892 5892 5892 5892 5892 5892 5892 5892 5892 5892 5892 5892
5887 5887 5886 5886 5885 5885 5885 5886 5886 5887 5887 5888 5888 5889 5889 5889 5889 5889 5889 5889 5890 5890 5890 5890 5890 5891 5891 5891 5891 5891 5891 5892 5892 5892 5892 5892 5892 5892 5891 5891 5891 5891 5891
5888 5888 5887 5886 5886 5886 5886 5886 5887 5887 5888 5888 5889 5889 5889 5889 5889 5889 5889 5890 5890 5890 5890 5890 5890 5890 5890 5890 5891 5891 5891 5891 5892 5892 5891 5892 5891 5891 5891 5891 5891 5890 5890
5890 5889 5888 5887 5886 5886 5887 5887 5888 5888 5888 5889 5889 5889 5890 5889 5889 5889 5890 5890 5890 5890 5890 5890 5890 5890 5890 5890 5890 5890 5891 5891 5891 5891 5891 5891 5891 5890 5890 5890 5890 5889 5889
5891 5890 5889 5888 5887 5887 5888 5889 5889 5889 5890 5890 5890 5890 5890 5890 5890 5890 5890 5890 5890 5890 5890 5890 5890 5890 5890 5889 5890 5890 5890 5890 5890 5890 5890 5890 5890 5889 5889 5889 5888 5888 5888
5893 5892 5891 5889 5888 5888 5889 5890 5891 5891 5891 5891 5891 5891 5891 5891 5891 5891 5890 5890 5890 5890 5890 5890 5890 5890 5890 5889 5889 5889 5890 5890 5890 5890 5889 5889 5889 5888 5888 5887 5887 5886 5886
5896 5894 5893 5892 5892 5891 5892 5892 5892 5892 5892 5892 5892 5891 5891 5891 5891 5891 5891 5891 5891 5890 5890 5890 5890 5890 5890 5889 5889 5889 5889 5889 5889 5889 5889 5888 5888 5887 5887 5886 5885 5885 5884
5898 5897 5896 5895 5895 5894 5894 5894 5894 5894 5893 5893 5892 5892 5892 5892 5892 5892 5892 5891 5891 5890 5890 5890 5890 5890 5889 5889 5889 5889 5888 5888 5888 5888 5888 5887 5887 5886 5885 5885 5884 5883 5882
5901 5900 5899 5898 5897 5897 5897 5896 5896 5896 5895 5894 5894 5894 5893 5893 5892 5892 5892 5891 5891 5890 5890 5890 5890 5890 5889 5889 5889 5889 5888 5888 5887 5887 5886 5886 5885 5884 5884 5883 5882 5881 5880
5903 5902 5901 5901 5900 5899 5899 5898 5898 5897 5897 5895 5895 5895 5894 5893 5893 5892 5892 5891 5891 5891 5890 5890 5890 5889 5889 5889 5888 5888 5888 5887 5886 5886 5885 5885 5884 5883 5882 5881 5880 5880 5879
5905 5904 5903 5902 5902 5901 5900 5900 5899 5899 5898 5897 5896 5896 5895 5894 5894 5893 5892 5891 5891 5890 5890 5889 5889 5889 5889 5888 5888 5887 5887 5886 5885 5885 5884 5883 5882 5881 5880 5880 5879 5878 5877
5906 5905 5904 5904 5903 5903 5902 5901 5901 5900 5899 5898 5897 5896 5896 5895 5894 5893 5892 5891 5891 5890 5889 5889 5888 5888 5888 5888 5887 5886 5886 5885 5884 5883 5883 5882 5881 5880 5879 5878 5876 5876 5875
5907 5906 5905 5905 5904 5904 5903 5902 5902 5901 5900 5899 5898 5897 5896 5895 5894 5893 5892 5891 5890 5889 5889 5888 5887 5887 5887 5886 5886 5885 5885 5884 5883 5882 5881 5880 5878 5877 5876 5875 5874 5873 5872
5908 5907 5906 5905 5905 5904 5903 5903 5902 5901 5900 5899 5898 5897 5895 5894 5894 5893 5892 5891 5890 5889 5888 5887 5886 5886 5885 5885 5884 5883 5883 5882 5881 5879 5878 5877 5876 5874 5873 5872 5871 5871 5870
5908 5907 5906 5906 5905 5905 5904 5903 5902 5901 5900 5899 5898 5897 5896 5894 5893 5892 5891 5890 5889 5888 5887 5886 5885 5885 5884 5883 5882 5881 5880 5879 5878 5877 5875 5874 5873 5872 5871 5870 5869 5868 5867
5908 5907 5906 5905 5905 5904 5904 5903 5902 5901 5900 5899 5898 5896 5895 5893 5892 5891 5890 5889 5888 5887 5886 5885 5884 5883 5882 5881 5880 5879 5878 5877 5876 5875 5873 5872 5870 5869 5868 5867 5866 5865 5864
5908 5907 5906 5905 5905 5904 5903 5902 5901 5900 5899 5898 5897 5895 5894 5893 5891 5890 5889 5888 5886 5885 5884 5883 5882 5881 5880 5879 5878 5877 5875 5874 5873 5872 5871 5870 5868 5867 5866 5864 5863 5862 5861
5907 5906 5906 5905 5904 5903 5902 5901 5900 5899 5898 5897 5896 5895 5893 5891 5890 5889 5887 5886 5885 5884 5882 5881 5880 5879 5878 5877 5876 5875 5873 5872 5871 5870 5868 5867 5866 5864 5863 5861 5860 5859 5858